| time (UTC) | temp F | wind direction | speed knots | gust knots | rain 1hr in | rain 24hr in | rain mn in | humidity % | barometer mb |
| 20260504044552 | 61 | 195 | 0.0 | 4.3 | 0.00 | 0.01 | 0.01 | 70 | 1015.0 |
| 20260504043049 | 61 | 220 | 0.0 | 3.5 | 0.00 | 0.01 | 0.01 | 69 | 1015.0 |
| 20260504041547 | 61 | 201 | 0.9 | 5.2 | 0.00 | 0.01 | 0.01 | 69 | 1015.0 |
| 20260504040048 | 61 | 238 | 0.9 | 4.3 | 0.00 | 0.01 | 0.01 | 69 | 1014.5 |
| 20260504034546 | 61 | 190 | 0.0 | 4.3 | 0.00 | 0.01 | 0.01 | 68 | 1014.7 |
| 20260504033052 | 61 | 220 | 0.9 | 6.1 | 0.00 | 0.01 | 0.01 | 68 | 1014.9 |
| 20260504031545 | 62 | 213 | 1.7 | 5.2 | 0.00 | 0.01 | 0.01 | 67 | 1014.7 |
| 20260504030046 | 62 | 234 | 0.9 | 4.3 | 0.00 | 0.01 | 0.01 | 66 | 1014.5 |
| 20260504024554 | 62 | 184 | 0.9 | 4.3 | 0.00 | 0.01 | 0.01 | 65 | 1014.3 |
| 20260504023044 | 62 | 272 | 1.7 | 5.2 | 0.00 | 0.01 | 0.01 | 65 | 1014.5 |
| 20260504021549 | 62 | 207 | 0.9 | 6.1 | 0.00 | 0.01 | 0.01 | 64 | 1014.4 |
| 20260504020046 | 63 | 188 | 4.3 | 7.8 | 0.00 | 0.01 | 0.01 | 64 | 1014.2 |
| 20260504014539 | 63 | 238 | 2.6 | 7.8 | 0.00 | 0.01 | 0.01 | 63 | 1014.1 |
| 20260504013047 | 64 | 190 | 3.5 | 7.8 | 0.00 | 0.01 | 0.01 | 62 | 1014.1 |
| 20260504011540 | 65 | 247 | 2.6 | 8.7 | 0.00 | 0.01 | 0.01 | 61 | 1013.7 |
| 20260504010037 | 66 | 214 | 3.5 | 8.7 | 0.00 | 0.01 | 0.01 | 59 | 1013.6 |
| 20260504004543 | 67 | 180 | 5.2 | 10.4 | 0.00 | 0.01 | 0.01 | 57 | 1013.1 |
| 20260504003036 | 68 | 222 | 3.5 | 8.7 | 0.00 | 0.01 | 0.01 | 55 | 1012.9 |
| 20260504001537 | 69 | 160 | 2.6 | 7.8 | 0.00 | 0.01 | 0.01 | 54 | 1012.6 |
| 20260504000035 | 70 | 231 | 2.6 | 7.0 | 0.00 | 0.01 | 0.01 | 53 | 1012.5 |
| 20260503234535 | 72 | 199 | 3.5 | 8.7 | 0.00 | 0.01 | 0.01 | 52 | 1012.6 |
| 20260503233034 | 72 | 144 | 3.5 | 9.6 | 0.00 | 0.01 | 0.01 | 53 | 1012.5 |
| 20260503231532 | 72 | 159 | 4.3 | 9.6 | 0.00 | 0.01 | 0.01 | 53 | 1012.9 |
| 20260503230036 | 71 | 166 | 2.6 | 7.8 | 0.00 | 0.01 | 0.01 | 55 | 1012.9 |
| 20260503224529 | 71 | 144 | 2.6 | 6.1 | 0.00 | 0.01 | 0.01 | 56 | 1013.0 |
| 20260503223027 | 69 | 180 | 4.3 | 8.7 | 0.00 | 0.01 | 0.01 | 58 | 1012.9 |
| 20260503221526 | 68 | 181 | 1.7 | 7.0 | 0.00 | 0.01 | 0.01 | 60 | 1013.2 |
| 20260503220030 | 68 | 172 | 2.6 | 7.0 | 0.00 | 0.01 | 0.01 | 60 | 1013.4 |
| 20260503214525 | 69 | 197 | 3.5 | 7.0 | 0.00 | 0.01 | 0.01 | 60 | 1013.4 |
| 20260503213028 | 69 | 190 | 2.6 | 7.0 | 0.00 | 0.01 | 0.01 | 60 | 1013.4 |
| 20260503211535 | 69 | 167 | 3.5 | 7.8 | 0.00 | 0.01 | 0.01 | 61 | 1013.4 |
| 20260503210023 | 68 | 247 | 0.9 | 6.1 | 0.00 | 0.01 | 0.01 | 61 | 1013.4 |
| 20260503204523 | 68 | 188 | 1.7 | 7.8 | 0.00 | 0.01 | 0.01 | 62 | 1013.4 |
| 20260503203023 | 68 | 218 | 0.9 | 7.0 | 0.00 | 0.01 | 0.01 | 63 | 1013.7 |
| 20260503201521 | 67 | 194 | 0.9 | 7.0 | 0.00 | 0.01 | 0.01 | 64 | 1013.9 |
| 20260503200021 | 68 | 228 | 2.6 | 9.6 | 0.00 | 0.01 | 0.01 | 64 | 1014.0 |
| 20260503194520 | 68 | 221 | 3.5 | 9.6 | 0.00 | 0.01 | 0.01 | 64 | 1014.0 |
| 20260503193034 | 69 | 267 | 3.5 | 7.8 | 0.00 | 0.01 | 0.01 | 62 | 1013.9 |
| 20260503191519 | 69 | 176 | 0.9 | 7.0 | 0.00 | 0.01 | 0.01 | 62 | 1013.7 |
| 20260503190031 | 69 | 170 | 0.9 | 5.2 | 0.00 | 0.01 | 0.01 | 61 | 1013.8 |
| 20260503184518 | 68 | 207 | 2.6 | 7.0 | 0.00 | 0.01 | 0.01 | 64 | 1013.9 |
| 20260503183013 | 67 | 233 | 0.0 | 4.3 | 0.00 | 0.01 | 0.01 | 68 | 1013.9 |
| 20260503181513 | 67 | 68 | 0.9 | 5.2 | 0.00 | 0.01 | 0.01 | 67 | 1014.0 |
| 20260503180012 | 66 | 149 | 1.7 | 4.3 | 0.00 | 0.01 | 0.01 | 69 | 1014.0 |
| 20260503174509 | 66 | 242 | 0.9 | 4.3 | 0.00 | 0.01 | 0.01 | 72 | 1014.2 |
| 20260503173015 | 63 | 247 | 0.0 | 4.3 | 0.00 | 0.01 | 0.01 | 78 | 1014.3 |
| 20260503171604 | 62 | 268 | 0.0 | 3.5 | 0.00 | 0.01 | 0.01 | 82 | 1014.5 |
| 20260503081606 | 60 | 116 | 1.7 | 4.3 | 0.00 | 0.00 | 0.00 | 85 | 1013.5 |